Location: Squirrel Cove
(50.1074°N, 124.9139°W)
Time: 01:58:24
(UTC-08:00)

ISS - Visible Passes

Search period start: 01 December 2021 00:00
Search period end: 11 December 2021 00:00
Orbit: 417 x 423 km, 51.6° (Epoch: 01 December)

Date Brightness Start Highest point End Pass type
(mag) Time Alt. Az. Time Alt. Az. Time Alt. Az.
01 Dec -3.7 17:26:25 10° W 17:29:48 67° N 17:32:21 16° E visible
01 Dec -1.9 19:03:18 10° WNW 19:05:20 32° W 19:05:20 32° W visible
02 Dec -3.7 18:16:05 10° WNW 18:19:29 76° SSW 18:20:12 51° SE visible
03 Dec -3.8 17:28:52 10° WNW 17:32:17 87° NNE 17:35:10 14° ESE visible
03 Dec -1.6 19:05:55 10° W 19:08:10 26° WSW 19:08:10 26° WSW visible
04 Dec -2.6 18:18:34 10° W 18:21:47 40° SSW 18:23:16 25° SSE visible
05 Dec -3.1 17:31:17 10° WNW 17:34:38 56° SSW 17:37:58 10° SE visible
05 Dec -0.8 19:09:11 10° WSW 19:10:54 13° SW 19:11:36 13° SSW visible
06 Dec -1.1 18:21:21 10° W 18:23:52 20° SW 18:26:24 10° S visible
07 Dec -1.6 17:33:50 10° W 17:36:47 28° SW 17:39:44 10° SSE visible
09 Dec -0.5 17:37:04 10° WSW 17:38:43 13° SW 17:40:23 10° SSW visible
